カタログに戻る

SITRO-AIS-14

運用中通信SSO
NORAD 61752·PAYLOAD·🇷🇺 Russia
この衛星名は、まだ公式ソースで確認されていません。

打ち上げ Nov 4, 2024 から Vostochny Cosmodrome

Loading…

次のパス (今後24時間)

TLE

最新Source: Space-Track

元期: Sep 14, 2026, 20:07 UTC

1 61752U 24199T   26257.83848554  .00002158  00000-0  18697-3 0  9993
2 61752  97.3206  91.6750 0007822 113.5407 246.6639 14.98047421148546

AllMySatでSITRO-AIS-14をリアルタイム追跡

Download on the App Store